Wind_Speed
2 2 2 2 2 2 3 3 4 4 4 4 4 4 4 4 3 2 1 1 0 0 1 2 2 3 4 3 4 4 4 5 5 6 6 7 7 8 9 9 9 10 10
4 3 2 2 1 0 1 2 3 3 3 3 2 3 3 2 2 1 0 0 1 1 2 3 4 4 5 5 5 5 5 6 6 7 7 8 8 7 8 9 10 11 11
6 5 4 3 3 2 1 1 1 2 2 2 1 1 1 1 0 0 1 1 1 2 4 5 5 5 6 6 6 6 6 7 7 7 8 8 9 9 9 9 10 11 11
9 8 6 5 5 4 4 3 2 2 2 2 1 2 2 2 2 2 2 2 3 4 5 6 6 6 7 7 8 8 8 8 8 8 9 9 10 10 10 10 10 10 10
11 11 10 9 8 7 6 6 5 4 4 4 4 4 4 4 4 4 4 4 4 5 6 7 7 8 9 9 9 10 9 9 9 9 9 10 10 11 11 11 11 12 12
14 13 13 12 10 10 9 8 8 7 7 7 6 6 7 7 7 7 7 7 7 7 7 8 8 9 10 10 10 10 9 9 9 9 10 10 11 12 12 12 12 13 13
16 15 15 14 12 12 11 10 10 10 9 9 9 9 9 10 10 9 10 10 10 10 9 10 10 10 10 11 11 10 9 10 10 11 11 11 12 13 13 14 14 14 14
17 17 16 16 15 15 14 14 12 12 11 11 11 11 12 12 13 13 13 13 13 13 13 12 12 12 11 11 11 11 11 11 12 12 12 13 13 14 15 15 15 15 15
19 19 19 18 18 18 17 16 15 15 14 14 14 14 15 15 15 15 15 15 15 15 15 14 14 14 13 13 13 13 13 13 13 13 13 14 14 15 15 16 16 16 16
20 20 20 20 20 20 20 19 19 18 18 17 16 17 17 17 17 17 17 17 16 16 16 16 16 15 15 15 16 16 15 15 15 15 15 16 16 17 17 17 17 17 17
21 21 21 22 22 22 22 22 22 21 20 20 19 19 19 19 19 19 19 19 18 18 18 18 17 17 17 17 17 18 18 17 17 16 17 18 18 19 19 18 18 18 19
21 22 23 24 23 23 23 24 24 24 23 23 23 23 23 22 22 22 22 21 20 19 19 20 20 19 19 19 19 19 19 19 19 19 19 20 21 21 21 21 21 21 21
22 22 23 25 25 25 26 26 26 26 26 26 26 25 25 24 24 24 25 24 23 22 22 22 22 22 21 21 22 22 22 22 21 22 22 23 23 23 23 24 24 24 24
24 24 25 25 27 28 28 28 29 29 29 29 29 29 28 27 27 27 27 26 25 25 25 24 24 24 24 24 23 24 25 24 24 24 24 25 25 26 26 26 26 27 27
26 26 26 27 28 29 30 30 30 31 31 31 31 31 31 30 29 29 29 29 28 27 27 26 26 27 27 26 27 27 27 27 27 27 27 27 27 28 28 28 28 28 28
27 27 28 28 29 30 30 31 31 31 31 32 32 32 32 31 31 31 31 30 29 28 27 27 28 28 28 28 28 28 28 28 29 29 30 30 29 29 29 29 28 28 29
30 29 29 30 30 31 32 32 32 33 33 34 33 33 33 34 33 32 31 30 30 30 30 30 30 29 30 30 30 30 31 31 31 32 32 32 31 31 31 31 31 31 31
31 31 30 30 31 32 32 33 33 34 35 36 35 34 34 34 34 33 33 32 32 32 31 31 31 31 31 32 32 33 34 33 33 33 33 33 32 32 33 33 33 33 33
32 32 32 32 32 32 33 33 33 34 36 36 35 34 34 35 35 35 34 34 34 34 33 32 32 33 33 33 33 34 35 36 35 35 35 34 33 33 34 34 34 34 34
34 33 33 33 33 33 34 34 33 34 34 35 35 35 35 35 36 35 35 36 35 34 33 33 34 34 34 34 35 36 36 37 36 36 36 36 35 35 35 36 36 35 35
33 33 33 33 33 34 34 34 34 34 33 33 35 36 37 37 36 36 37 36 35 35 35 35 36 36 36 36 37 36 36 37 37 37 37 37 37 37 37 37 36 37 37
34 33 34 34 34 35 35 35 35 35 34 35 35 36 38 39 38 37 37 37 37 37 37 37 36 36 37 37 37 37 37 37 37 37 37 37 37 38 38 38 38 38 38
35 35 35 36 36 36 36 36 36 36 36 37 37 37 38 39 38 38 38 39 39 39 38 38 37 37 38 38 38 38 38 38 37 37 37 37 37 37 37 37 38 38 38
35 35 35 35 36 36 37 37 37 37 37 37 37 37 38 38 38 38 39 39 39 40 40 39 40 39 39 39 39 38 38 38 37 36 36 36 35 36 36 36 36 36 37
37 36 36 36 37 37 37 36 37 36 37 37 37 37 37 37 38 38 39 40 40 40 39 39 39 39 39 39 39 38 37 37 37 36 36 35 35 35 35 36 35 35 36
38 38 38 38 37 36 37 37 36 36 37 37 38 38 38 38 39 39 39 40 40 40 39 38 38 38 38 38 37 37 37 37 37 37 36 36 36 35 35 36 35 34 34
Wind_Direction
326 347 351 6 28 56 69 82 99 98 104 114 121 124 124 122 123 125 123 102 85 210 241 277 300 295 300 294 291 293 287 279 279 280 279 277 279 275 269 270 272 273 276
271 291 300 315 320 270 102 95 116 117 114 114 119 125 127 126 122 109 93 5 337 317 301 284 284 294 294 298 301 298 294 289 289 287 282 280 281 282 277 276 275 276 278
261 269 277 279 269 247 208 169 169 156 140 131 119 139 152 158 157 312 294 288 299 315 319 314 303 296 297 297 302 302 296 288 288 287 285 286 287 287 285 281 280 279 279
260 261 266 269 265 257 245 240 231 225 216 219 241 264 263 269 284 294 294 296 296 298 304 310 304 299 299 301 301 302 297 290 286 287 289 289 289 290 290 286 286 285 284
260 259 260 262 261 259 254 249 243 245 245 246 255 267 273 278 286 287 283 285 290 296 299 301 299 294 295 297 299 299 296 290 284 287 289 288 287 287 288 287 285 283 282
256 256 258 258 257 257 255 253 253 255 254 255 262 269 270 274 280 284 283 285 289 294 296 296 296 295 295 296 299 298 294 293 289 285 284 283 283 287 288 288 287 286 284
253 254 257 257 257 259 257 255 258 257 256 260 264 268 271 274 278 281 282 283 286 290 291 290 291 292 291 292 292 289 290 291 292 291 289 288 287 287 287 288 287 286 285
253 254 255 257 259 261 258 257 258 259 262 263 267 268 272 276 279 280 280 282 283 284 287 287 285 284 285 287 284 282 286 288 291 290 287 287 288 287 287 286 286 285 285
255 255 254 256 260 261 258 257 259 261 264 265 267 270 272 275 277 277 278 279 279 281 283 283 284 282 281 285 286 285 285 285 288 288 287 288 288 289 289 287 283 283 283
256 254 255 257 259 260 258 258 259 259 262 265 268 269 271 274 275 275 275 276 277 278 278 279 279 280 279 280 282 284 284 283 283 283 286 287 287 286 287 288 285 283 283
254 252 254 256 257 259 259 260 261 261 261 263 265 267 269 273 274 273 274 275 274 274 277 277 279 280 278 277 279 280 282 280 280 282 285 287 286 287 286 285 284 281 282
255 254 254 254 256 257 258 260 261 262 263 263 264 266 268 272 274 274 275 274 271 272 275 276 277 278 278 278 279 279 281 280 279 281 283 284 285 286 285 283 282 281 281
256 256 256 256 256 257 259 259 260 262 264 265 264 264 265 269 272 273 274 273 274 273 276 277 278 277 277 278 279 280 279 279 279 279 280 281 281 282 282 282 281 280 280
256 255 256 256 259 261 260 259 260 262 264 265 264 263 265 267 269 269 271 273 275 274 274 275 277 277 276 276 277 278 276 277 279 280 281 281 279 278 279 279 280 280 280
257 258 258 258 261 262 261 259 261 262 263 264 265 263 264 266 266 267 269 272 274 276 275 274 276 275 275 276 277 276 274 274 276 279 281 280 279 277 276 278 279 279 279
259 259 258 259 261 262 262 261 262 261 262 264 264 263 263 264 265 267 270 271 272 275 274 275 277 277 276 276 276 275 274 273 274 276 277 278 277 277 277 278 278 277 277
260 259 260 260 259 261 261 262 262 261 261 262 262 263 262 264 265 267 269 272 273 274 274 274 275 276 276 275 274 274 274 273 274 275 275 274 275 276 276 276 277 277 276
260 259 260 260 260 261 262 263 264 262 261 261 260 260 261 263 265 268 271 273 272 271 271 272 274 275 275 274 273 274 274 273 274 274 273 273 273 274 275 276 277 277 276
260 260 260 260 261 262 262 263 264 263 261 260 260 260 262 264 266 268 270 272 272 270 269 271 274 275 274 274 273 274 274 273 273 273 272 271 271 273 273 274 276 276 275
259 260 259 260 261 261 262 263 265 265 262 259 261 263 264 264 264 265 267 269 270 269 270 271 272 273 274 273 274 275 274 274 273 273 273 272 272 273 274 274 274 274 274
258 258 258 259 261 262 262 264 266 266 264 262 262 262 262 262 264 265 266 267 268 269 270 271 272 272 273 273 275 276 275 275 274 273 273 273 273 272 273 274 273 273 274
256 257 258 260 262 263 263 265 266 266 265 264 263 263 263 263 263 265 266 267 269 270 271 272 272 272 273 273 274 276 276 276 276 276 274 273 273 273 273 274 273 273 273
256 257 259 261 262 263 264 265 266 266 266 264 264 265 264 263 264 265 266 268 269 271 271 272 274 273 273 274 274 275 274 276 277 276 274 272 272 272 275 275 274 273 272
257 258 259 261 262 262 264 265 267 267 267 265 264 264 263 263 264 266 268 270 272 271 272 273 273 273 273 274 275 276 275 276 278 278 277 275 275 275 277 278 276 273 273
257 259 260 261 262 263 264 265 266 266 265 264 264 264 265 264 265 267 268 269 272 273 274 274 273 273 272 273 274 275 275 276 277 278 278 277 276 276 277 278 276 274 272
258 259 260 261 262 263 264 265 265 264 264 264 265 265 265 267 267 269 269 270 271 272 273 273 273 274 274 274 274 274 276 276 276 276 276 276 276 276 276 277 275 274 273
Height
5909 5908 5908 5907 5906 5906 5905 5904 5904 5904 5904 5904 5903 5904 5904 5904 5904 5904 5904 5904 5904 5904 5904 5904 5904 5904 5904 5903 5903 5902 5902 5902 5902 5901 5901 5901 5901 5901 5900 5900 5900 5900 5900
5909 5908 5908 5907 5907 5906 5905 5905 5905 5904 5904 5904 5904 5904 5904 5904 5904 5904 5904 5904 5904 5904 5904 5904 5903 5903 5903 5902 5902 5901 5901 5901 5900 5900 5900 5900 5900 5899 5899 5898 5898 5898 5897
5908 5908 5908 5907 5907 5906 5906 5905 5905 5905 5904 5904 5904 5904 5904 5904 5904 5904 5903 5903 5903 5903 5903 5903 5902 5902 5902 5901 5901 5900 5900 5899 5899 5899 5898 5898 5898 5897 5897 5896 5896 5895 5895
5907 5907 5907 5907 5906 5906 5906 5905 5905 5905 5904 5904 5904 5904 5904 5904 5904 5903 5903 5903 5903 5902 5902 5902 5901 5901 5900 5900 5899 5899 5898 5898 5897 5897 5896 5896 5896 5895 5894 5894 5893 5893 5892
5905 5905 5905 5905 5905 5905 5904 5904 5904 5904 5903 5903 5903 5903 5903 5903 5903 5902 5902 5902 5902 5901 5901 5900 5900 5899 5898 5898 5897 5897 5896 5896 5895 5895 5894 5893 5893 5892 5892 5892 5891 5890 5890
5902 5902 5903 5903 5903 5903 5903 5902 5902 5902 5902 5902 5902 5902 5902 5902 5901 5901 5900 5900 5900 5900 5899 5899 5898 5897 5896 5896 5895 5894 5894 5893 5892 5892 5891 5891 5891 5890 5890 5889 5888 5887 5887
5899 5899 5899 5900 5900 5900 5900 5900 5900 5900 5899 5899 5899 5899 5899 5899 5899 5899 5898 5898 5898 5897 5897 5896 5895 5895 5894 5893 5893 5892 5892 5891 5890 5889 5889 5888 5888 5887 5887 5886 5885 5884 5883
5895 5895 5896 5896 5897 5897 5897 5897 5897 5897 5897 5897 5897 5896 5896 5897 5896 5896 5896 5895 5894 5894 5893 5893 5892 5891 5891 5890 5889 5889 5889 5888 5887 5887 5886 5885 5884 5883 5883 5882 5882 5881 5880
5890 5891 5891 5892 5892 5893 5893 5893 5893 5894 5894 5894 5894 5893 5893 5893 5893 5893 5892 5891 5891 5890 5890 5889 5888 5888 5887 5887 5886 5886 5885 5885 5884 5883 5883 5882 5881 5880 5879 5878 5878 5877 5876
5885 5886 5886 5887 5888 5888 5889 5889 5889 5890 5890 5890 5889 5890 5889 5889 5889 5889 5888 5887 5887 5886 5886 5885 5885 5884 5883 5883 5882 5882 5881 5881 5880 5879 5879 5878 5877 5876 5875 5874 5873 5872 5872
5879 5880 5881 5881 5882 5883 5883 5884 5885 5885 5885 5885 5885 5885 5885 5885 5884 5884 5883 5882 5882 5882 5881 5881 5880 5880 5879 5878 5878 5877 5877 5876 5876 5875 5874 5873 5872 5871 5870 5870 5869 5868 5867
5873 5874 5875 5875 5876 5877 5878 5878 5879 5879 5880 5880 5880 5880 5880 5879 5879 5878 5878 5877 5876 5876 5876 5875 5875 5875 5874 5874 5873 5872 5872 5872 5871 5870 5869 5868 5867 5866 5865 5865 5864 5863 5862
5867 5867 5868 5869 5870 5871 5871 5872 5872 5873 5873 5873 5873 5874 5874 5873 5873 5872 5872 5871 5871 5870 5870 5870 5869 5869 5868 5868 5867 5867 5866 5866 5865 5864 5863 5862 5861 5861 5860 5859 5858 5857 5856
5860 5861 5861 5862 5863 5863 5863 5864 5865 5865 5866 5866 5866 5867 5867 5866 5866 5866 5865 5864 5864 5864 5864 5863 5863 5862 5862 5861 5861 5860 5860 5859 5859 5858 5857 5856 5855 5854 5853 5852 5851 5850 5849
5852 5853 5854 5854 5855 5855 5855 5856 5857 5857 5858 5858 5859 5859 5859 5859 5859 5859 5858 5858 5858 5857 5857 5856 5856 5855 5855 5854 5854 5853 5852 5852 5851 5851 5850 5849 5848 5847 5846 5845 5844 5843 5842
5844 5845 5845 5846 5847 5847 5847 5848 5848 5848 5849 5849 5850 5850 5851 5851 5851 5851 5850 5850 5850 5849 5849 5848 5848 5847 5847 5847 5846 5845 5844 5844 5843 5843 5842 5841 5840 5839 5838 5837 5836 5835 5834
5836 5836 5837 5837 5838 5838 5838 5839 5839 5839 5840 5840 5841 5841 5842 5842 5842 5842 5842 5842 5841 5841 5841 5841 5840 5839 5839 5838 5838 5837 5836 5835 5835 5834 5833 5832 5831 5830 5829 5828 5827 5826 5825
5826 5827 5828 5828 5829 5829 5829 5829 5830 5830 5830 5831 5831 5832 5833 5833 5833 5833 5833 5833 5832 5832 5832 5832 5831 5830 5830 5829 5829 5828 5827 5826 5825 5824 5823 5822 5821 5820 5819 5818 5817 5816 5816
5817 5818 5818 5819 5819 5820 5820 5820 5820 5820 5820 5821 5821 5822 5823 5823 5824 5824 5824 5824 5824 5823 5823 5823 5822 5821 5821 5820 5819 5818 5817 5816 5815 5814 5813 5812 5811 5811 5810 5808 5807 5807 5806
5807 5808 5809 5809 5810 5810 5811 5811 5811 5811 5811 5811 5812 5813 5813 5814 5814 5814 5815 5814 5814 5814 5813 5813 5812 5811 5811 5810 5809 5807 5806 5805 5804 5803 5802 5801 5800 5800 5799 5798 5797 5797 5796
5797 5798 5799 5799 5800 5801 5801 5801 5801 5801 5801 5801 5802 5803 5803 5804 5804 5804 5804 5804 5804 5803 5803 5803 5802 5800 5800 5799 5798 5796 5795 5794 5792 5791 5790 5789 5788 5788 5788 5787 5786 5786 5785
5786 5787 5788 5789 5790 5790 5790 5791 5791 5791 5791 5792 5792 5793 5793 5793 5793 5793 5793 5793 5793 5793 5793 5792 5790 5789 5788 5788 5787 5785 5784 5783 5781 5780 5778 5777 5777 5776 5776 5775 5775 5774 5773
5776 5777 5778 5779 5779 5779 5780 5780 5780 5780 5780 5781 5781 5782 5782 5782 5782 5783 5782 5782 5782 5781 5781 5780 5779 5778 5777 5776 5775 5774 5773 5771 5770 5769 5767 5766 5765 5764 5764 5764 5763 5762 5762
5765 5766 5767 5768 5768 5769 5768 5769 5769 5769 5769 5769 5770 5770 5771 5771 5771 5771 5771 5771 5771 5770 5770 5769 5768 5767 5766 5765 5764 5762 5761 5760 5759 5758 5757 5756 5755 5754 5753 5752 5751 5751 5750
5754 5755 5756 5756 5757 5757 5757 5758 5758 5757 5758 5758 5759 5759 5759 5759 5760 5760 5760 5759 5759 5759 5758 5756 5755 5754 5754 5754 5753 5751 5751 5750 5748 5747 5746 5745 5744 5744 5743 5742 5741 5740 5739
5742 5743 5744 5745 5746 5746 5746 5747 5746 5746 5747 5747 5747 5748 5748 5748 5748 5748 5748 5748 5747 5747 5746 5745 5744 5743 5743 5742 5741 5741 5740 5739 5737 5736 5735 5734 5734 5733 5732 5731 5730 5729 5728